EW9240 Weather Reports


Display with metric or nautical units.
time (UTC)temp
F
wind
direction
speed
MPH
gust
MPH
rain 1hr
in
rain 24hr
in
rain mn
in
humidity
%
barometer
mb
20260901204534 66 205 0.0 2.0 0.00 0.00 0.00 71 1009.1
20260901203014 65 214 0.0 3.0 0.00 0.00 0.00 73 1009.2
20260901201606 66 205 2.0 6.0 0.00 0.00 0.00 71 1009.3
20260901200042 66 192 0.0 0.0 0.00 0.00 0.00 71 1009.3
20260901194524 66 72 0.0 5.0 0.00 0.00 0.00 72 1009.4
20260901193013 65 219 0.0 3.0 0.00 0.00 0.00 73 1009.7
20260901191615 65 143 0.0 2.0 0.00 0.00 0.00 73 1009.8
20260901190048 65 164 0.0 2.0 0.00 0.00 0.00 76 1009.8
20260901184601 64 224 0.0 3.0 0.00 0.00 0.00 77 1010.0
20260901183021 63 206 0.0 4.0 0.00 0.00 0.00 78 1010.1
20260901181500 63 214 0.0 4.0 0.00 0.00 0.00 78 1010.1
20260901180053 64 214 0.0 4.0 0.00 0.00 0.00 78 1010.2
20260901174551 63 122 0.0 3.0 0.00 0.00 0.00 81 1010.2
20260901173030 61 214 0.0 4.0 0.00 0.00 0.00 83 1010.2
20260901171513 60 217 0.0 5.0 0.00 0.00 0.00 85 1010.1
20260901164549 60 214 1.0 5.0 0.00 0.00 0.00 83 1010.1
20260901163031 60 210 0.0 1.0 0.00 0.00 0.00 83 1010.0
20260901161525 60 162 0.0 1.0 0.00 0.00 0.00 83 1010.1
20260901160006 60 218 0.0 2.0 0.00 0.00 0.00 83 1010.0
20260901154557 60 222 0.0 3.0 0.00 0.00 0.00 82 1009.9
20260901153041 60 212 0.0 4.0 0.00 0.00 0.00 81 1009.9
20260901151527 60 216 0.0 1.0 0.00 0.00 0.00 81 1009.8
20260901150109 60 127 0.0 3.0 0.00 0.00 0.00 81 1009.7
20260901144550 60 116 0.0 1.0 0.00 0.00 0.00 81 1009.6
20260901143014 60 126 0.0 0.0 0.00 0.00 0.00 82 1009.6
20260901141524 60 219 0.0 0.0 0.00 0.00 0.00 82 1009.6
20260901140009 60 124 0.0 1.0 0.00 0.00 0.00 82 1009.5
20260901134557 60 125 0.0 1.0 0.00 0.00 0.00 82 1009.4
20260901133044 59 124 0.0 3.0 0.00 0.00 0.00 82 1009.4
20260901131512 59 118 0.0 2.0 0.00 0.00 0.00 83 1009.4
20260901130057 59 124 0.0 1.0 0.00 0.00 0.00 83 1009.4
20260901124539 59 142 0.0 0.0 0.00 0.00 0.00 83 1009.3
20260901123040 59 141 0.0 0.0 0.00 0.00 0.00 84 1009.2
20260901121512 58 139 0.0 1.0 0.00 0.00 0.00 84 1009.2
20260901120105 58 124 0.0 1.0 0.00 0.00 0.00 84 1009.4
20260901114549 58 129 0.0 1.0 0.00 0.00 0.00 84 1009.3
20260901113035 58 129 0.0 1.0 0.00 0.00 0.00 84 1009.2
20260901111525 58 159 0.0 1.0 0.00 0.00 0.00 83 1009.1
20260901110045 59 138 0.0 3.0 0.00 0.00 0.00 83 1009.0
20260901104530 59 122 0.0 2.0 0.00 0.00 0.00 82 1009.0
20260901103012 59 155 0.0 1.0 0.00 0.00 0.00 82 1009.0
20260901101602 59 213 0.0 1.0 0.00 0.00 0.00 81 1008.9
20260901100052 60 210 0.0 1.0 0.00 0.00 0.00 81 1008.9
20260901094532 60 211 0.0 2.0 0.00 0.00 0.00 80 1008.7
20260901093014 60 129 0.0 2.0 0.00 0.00 0.00 80 1008.7
20260901091605 61 205 1.0 4.0 0.00 0.00 0.00 80 1008.5
20260901090049 61 116 0.0 2.0 0.00 0.00 0.00 80 1008.3
20260901084535 61 206 0.0 1.0 0.00 0.00 0.00 79 1008.3
20260901083045 61 203 0.0 2.0 0.00 0.00 0.00 78 1008.3
20260901081530 61 215 0.0 4.0 0.00 0.00 0.00 78 1008.2
20260901080015 62 206 2.0 5.0 0.00 0.00 0.00 77 1008.2
20260901074601 63 198 0.0 8.0 0.00 0.00 0.00 75 1007.9
20260901073040 64 205 1.0 6.0 0.00 0.00 0.00 73 1007.8
20260901071523 65 224 2.0 6.0 0.00 0.00 0.00 71 1007.6
20260901070006 66 146 0.0 1.0 0.00 0.00 0.00 69 1007.3
20260901064558 67 208 0.0 1.0 0.00 0.00 0.00 68 1007.1
20260901063059 67 226 0.0 2.0 0.00 0.00 0.00 67 1006.9
20260901061532 68 214 0.0 0.0 0.00 0.00 0.00 66 1006.8
20260901060020 69 217 0.0 6.0 0.00 0.00 0.00 65 1006.5
20260901054546 70 221 2.0 6.0 0.00 0.00 0.00 64 1006.3
20260901053034 70 212 1.0 5.0 0.00 0.00 0.00 63 1006.4
20260901051527 70 211 3.0 7.0 0.00 0.00 0.00 62 1006.3
20260901050005 70 250 0.0 0.0 0.00 0.00 0.00 61 1006.1
20260901044602 70 254 0.0 0.0 0.00 0.00 0.00 60 1006.0
20260901043043 71 130 0.0 0.0 0.00 0.00 0.00 59 1005.8
20260901041529 72 130 0.0 0.0 0.00 0.00 0.00 57 1005.6
20260901040012 73 130 0.0 0.0 0.00 0.00 0.00 55 1005.4
20260901034603 74 130 0.0 0.0 0.00 0.00 0.00 52 1005.2
20260901033047 76 130 0.0 0.0 0.00 0.00 0.00 49 1004.9
20260901031534 77 129 0.0 0.0 0.00 0.00 0.00 48 1004.8
20260901030021 78 220 0.0 0.0 0.00 0.00 0.00 45 1004.8
20260901024505 79 214 0.0 2.0 0.00 0.00 0.00 43 1004.9
20260901023054 80 214 1.0 4.0 0.00 0.00 0.00 43 1004.7
20260901021517 81 214 0.0 2.0 0.00 0.00 0.00 45 1004.7
20260901020003 82 217 1.0 4.0 0.00 0.00 0.00 45 1004.6
20260901014555 82 198 0.0 5.0 0.00 0.00 0.00 45 1004.5
20260901013041 82 217 1.0 5.0 0.00 0.00 0.00 45 1004.5
20260901011500 84 198 0.0 2.0 0.00 0.00 0.00 44 1004.5
20260901010054 84 203 0.0 3.0 0.00 0.00 0.00 43 1004.5
20260901004541 84 227 0.0 2.0 0.00 0.00 0.00 41 1004.6
20260901003018 84 280 0.0 2.0 0.00 0.00 0.00 40 1004.6
20260901001605 84 221 0.0 3.0 0.00 0.00 0.00 41 1004.6
20260901000105 84 215 0.0 1.0 0.00 0.00 0.00 41 1004.6
20260831234532 84 356 0.0 4.0 0.00 0.00 0.00 41 1004.7
20260831233015 83 321 0.0 4.0 0.00 0.00 0.00 41 1004.7
20260831231604 83 319 1.0 5.0 0.00 0.00 0.00 41 1004.8
20260831230053 83 292 2.0 4.0 0.00 0.00 0.00 41 1004.9
20260831224543 82 280 0.0 5.0 0.00 0.00 0.00 43 1005.0
20260831223022 82 73 0.0 2.0 0.00 0.00 0.00 43 1005.2
20260831221602 81 44 0.0 5.0 0.00 0.00 0.00 44 1005.4
20260831220047 80 54 0.0 3.0 0.00 0.00 0.00 45 1005.6
20260831214532 80 300 0.0 2.0 0.00 0.00 0.00 45 1005.8
20260831213015 79 129 0.0 3.0 0.00 0.00 0.00 47 1006.0
20260831211603 78 214 0.0 4.0 0.00 0.00 0.00 49 1006.1
20260831210043 77 276 1.0 4.0 0.00 0.00 0.00 51 1006.2